LRBS Weather Reports


Display with metric or nautical units.
time (UTC)temp
F
wind
direction
speed
MPH
gust
MPH
rain 1hr
in
rain 24hr
in
rain mn
in
humidity
%
barometer
mb
20260901140429 90 250 6.0 0.0 0.00 0.00 0.00 29 1015.0
20260901134814 90 280 8.0 0.0 0.00 0.00 0.00 29 1015.0
20260901133315 90 280 8.0 0.0 0.00 0.00 0.00 29 1015.0
20260901131822 90 220 6.0 0.0 0.00 0.00 0.00 27 1015.0
20260901130314 90 220 6.0 0.0 0.00 0.00 0.00 27 1015.0
20260901124820 90 2.0 0.0 0.00 0.00 0.00 27 1016.0
20260901123315 90 2.0 0.0 0.00 0.00 0.00 27 1016.0
20260901121813 90 3.0 0.0 0.00 0.00 0.00 27 1016.0
20260901120314 90 3.0 0.0 0.00 0.00 0.00 27 1016.0
20260901114814 88 3.0 0.0 0.00 0.00 0.00 29 1016.0
20260901113314 88 3.0 0.0 0.00 0.00 0.00 29 1016.0
20260901111814 88 3.0 0.0 0.00 0.00 0.00 27 1016.0
20260901110314 88 3.0 0.0 0.00 0.00 0.00 27 1016.0
20260901104814 88 3.0 0.0 0.00 0.00 0.00 27 1016.0
20260901103314 88 3.0 0.0 0.00 0.00 0.00 27 1016.0
20260901101912 84 3.0 0.0 0.00 0.00 0.00 29 1016.0
20260901100316 84 3.0 0.0 0.00 0.00 0.00 29 1016.0
20260901094815 86 60 5.0 0.0 0.00 0.00 0.00 27 1016.0
20260901093314 86 60 5.0 0.0 0.00 0.00 0.00 27 1016.0
20260901091814 82 3.0 0.0 0.00 0.00 0.00 32 1017.0
20260901090314 82 3.0 0.0 0.00 0.00 0.00 32 1017.0
20260901084814 81 5.0 0.0 0.00 0.00 0.00 32 1017.0
20260901083323 81 5.0 0.0 0.00 0.00 0.00 32 1017.0
20260901081814 79 30 6.0 0.0 0.00 0.00 0.00 45 1017.0
20260901080316 79 30 6.0 0.0 0.00 0.00 0.00 45 1017.0
20260901074820 77 40 5.0 0.0 0.00 0.00 0.00 51 1017.0
20260901073314 77 40 5.0 0.0 0.00 0.00 0.00 51 1017.0
20260901071813 75 10 5.0 0.0 0.00 0.00 0.00 54 1017.0
20260901070313 75 10 5.0 0.0 0.00 0.00 0.00 54 1017.0
20260901064814 72 20 5.0 0.0 0.00 0.00 0.00 57 1017.0
20260901063315 72 20 5.0 0.0 0.00 0.00 0.00 57 1017.0
20260901061814 68 360 3.0 0.0 0.00 0.00 0.00 60 1017.0
20260901060314 68 360 3.0 0.0 0.00 0.00 0.00 60 1017.0
20260901054814 66 2.0 0.0 0.00 0.00 0.00 64 1017.0
20260901053314 66 2.0 0.0 0.00 0.00 0.00 64 1017.0
20260901051814 64 1.0 0.0 0.00 0.00 0.00 68 1016.0
20260901050314 64 1.0 0.0 0.00 0.00 0.00 68 1016.0
20260901044834 63 20 3.0 0.0 0.00 0.00 0.00 73 1016.0
20260901043314 63 20 3.0 0.0 0.00 0.00 0.00 73 1016.0
20260901041811 61 20 5.0 0.0 0.00 0.00 0.00 72 1016.0
20260901040313 61 20 5.0 0.0 0.00 0.00 0.00 72 1016.0
20260901034814 61 50 3.0 0.0 0.00 0.00 0.00 72 1016.0
20260901033314 61 50 3.0 0.0 0.00 0.00 0.00 72 1016.0
20260901031807 61 100 3.0 0.0 0.00 0.00 0.00 72 1016.0
20260901030313 61 100 3.0 0.0 0.00 0.00 0.00 72 1016.0
20260901024814 61 100 2.0 0.0 0.00 0.00 0.00 72 1016.0
20260901023314 61 100 2.0 0.0 0.00 0.00 0.00 72 1016.0
20260901021811 63 80 2.0 0.0 0.00 0.00 0.00 68 1016.0
20260901020310 63 80 2.0 0.0 0.00 0.00 0.00 68 1016.0
20260901014811 63 40 2.0 0.0 0.00 0.00 0.00 68 1016.0
20260901013314 63 40 2.0 0.0 0.00 0.00 0.00 68 1016.0
20260901011815 63 2.0 0.0 0.00 0.00 0.00 68 1016.0
20260901010315 63 2.0 0.0 0.00 0.00 0.00 68 1016.0
20260901004814 64 20 3.0 0.0 0.00 0.00 0.00 64 1016.0
20260901003314 64 20 3.0 0.0 0.00 0.00 0.00 64 1016.0
20260901001810 64 10 3.0 0.0 0.00 0.00 0.00 64 1016.0
20260901000314 64 10 3.0 0.0 0.00 0.00 0.00 64 1016.0
20260831234814 64 340 3.0 0.0 0.00 0.00 0.00 64 1016.0
20260831233314 64 340 3.0 0.0 0.00 0.00 0.00 64 1016.0
20260831231815 66 30 5.0 0.0 0.00 0.00 0.00 60 1016.0
20260831230314 66 30 5.0 0.0 0.00 0.00 0.00 60 1016.0
20260831224813 66 60 3.0 0.0 0.00 0.00 0.00 60 1016.0
20260831223314 66 60 3.0 0.0 0.00 0.00 0.00 60 1016.0
20260831221815 70 80 3.0 0.0 0.00 0.00 0.00 50 1017.0
20260831220314 70 80 3.0 0.0 0.00 0.00 0.00 50 1017.0
20260831214814 68 70 3.0 0.0 0.00 0.00 0.00 53 1017.0
20260831213314 68 70 3.0 0.0 0.00 0.00 0.00 53 1017.0
20260831211813 70 70 5.0 0.0 0.00 0.00 0.00 50 1017.0
20260831210314 70 70 5.0 0.0 0.00 0.00 0.00 50 1017.0
20260831204815 73 90 7.0 0.0 0.00 0.00 0.00 44 1016.0
20260831203315 73 90 7.0 0.0 0.00 0.00 0.00 44 1016.0
20260831201814 77 110 8.0 0.0 0.00 0.00 0.00 36 1016.0
20260831200313 77 110 8.0 0.0 0.00 0.00 0.00 36 1016.0
20260831194814 77 110 8.0 0.0 0.00 0.00 0.00 36 1016.0
20260831193314 77 110 8.0 0.0 0.00 0.00 0.00 36 1016.0
20260831191815 79 110 9.0 0.0 0.00 0.00 0.00 37 1016.0
20260831190316 79 110 9.0 0.0 0.00 0.00 0.00 37 1016.0
20260831184815 79 110 9.0 0.0 0.00 0.00 0.00 39 1016.0
20260831183314 79 110 9.0 0.0 0.00 0.00 0.00 39 1016.0
20260831181815 75 90 5.0 0.0 0.00 0.00 0.00 47 1016.0
20260831180314 75 90 5.0 0.0 0.00 0.00 0.00 47 1016.0
20260831174815 79 50 3.0 0.0 0.00 0.00 0.00 42 1016.0
20260831173314 79 50 3.0 0.0 0.00 0.00 0.00 42 1016.0
20260831171814 82 110 5.0 0.0 0.00 0.00 0.00 35 1016.0
20260831170316 82 110 5.0 0.0 0.00 0.00 0.00 35 1016.0
20260831164814 86 110 7.0 0.0 0.00 0.00 0.00 29 1016.0
20260831163314 86 110 7.0 0.0 0.00 0.00 0.00 29 1016.0
20260831161814 88 110 6.0 0.0 0.00 0.00 0.00 27 1016.0
20260831160314 88 110 6.0 0.0 0.00 0.00 0.00 27 1016.0
20260831154814 88 110 6.0 0.0 0.00 0.00 0.00 29 1016.0
20260831153314 88 110 6.0 0.0 0.00 0.00 0.00 29 1016.0
20260831151814 90 120 8.0 0.0 0.00 0.00 0.00 27 1016.0
20260831150314 90 120 8.0 0.0 0.00 0.00 0.00 27 1016.0
20260831144814 90 100 7.0 0.0 0.00 0.00 0.00 27 1016.0
20260831143314 90 100 7.0 0.0 0.00 0.00 0.00 27 1016.0
20260831141814 90 110 7.0 0.0 0.00 0.00 0.00 27 1016.0